DELTA 1 DEB

Satellite information

Favourite Embed

Satellite Type and Status

DEBRISIN ORBIT

Key statistics

Satellite DELTA 1 DEB at a glance.

Uptime

17988

Days in orbit

Revolutions

≈ 13.8

Per day

Orbit

SSO

Sun Synchronous Orbit

Inclination

102.0

Latest

Satellite identification and parameters

Extended collection of information and parameters for DELTA 1 DEB.

Object identification

Identified? True

Debris? True

Object name: DELTA 1 DEB

International designator: 1976-077CF

Object number (NORAD): 10835

Object ID (CCSDS): 10835

Country: UNITED STATES OF AMERICA (US)

Current information (Y/N): Y

RCS size: SMALL

Orbital parameters

Period: 104.684 minutes

Inclination: 102.0052 deg

SMA: 7357.807 km

Apoapsis: 1011.29 km

Periapsis: 948.055 km

RAAN: 344.967 deg

Eccentricy: 0.00429712

Argument of periapsis: 33.0583 deg

Mean anomaly: 349.9535 deg

Mean motion: 13.75561912 rev/day

Mean motion (dot): 0.00012451 rev/day2

B* drag term: 0.012877049 1/REarth

Two-line elements (TLE)

Creation date: Oct. 27, 2025, 10:32 a.m.

Reference frame: TEME

Reference center: EARTH

Epoch: Oct. 27, 2025, 2:48 a.m. UTC

TLE line 0: 0 DELTA 1 DEB

TLE line 1: 1 10835U 76077CF 25300.11721142 .00012451 00000-0 12877-1 0 9992

TLE line 2: 2 10835 102.0052 344.9670 0042971 33.0583 349.9535 13.75561912332878

Live tracking on map

Real-time ground track for satellite DELTA 1 DEB.

In-orbit conjunctions

A list of the most updated potential collisions computed for object DELTA 1 DEB.

Target Orbit TCA Probability of collision Miss distance Type
SL-8 R/B LEO 2025-08-28 11:38:34 0.0006771044 70.0 (m) ROCKET BODY
COSMOS 2361 LEO 2025-08-22 18:33:10 0.0001650113 576.0 (m) PAYLOAD
SL-8 R/B LEO 2025-07-12 15:40:02 0.0002333223 99.0 (m) ROCKET BODY

Associated space launch

Meteorological satellite using radiometric imaging

DELTA 1 DEB was lifted into orbit during the mission ‘Delta 2310 | NOAA 5’, on board a Delta 2310 space rocket.

The launch took place on July 29, 1976, 5:07 p.m. from Space Launch Complex 2W.

For more information about the launch, click the button.

Launch to space Delta 2310 | NOAA 5
Delta 2310 | NOAA 5

Agency: N/A

Status: Launch Successful

Launch date: July 29, 1976, 5:07 p.m. UTC

Rocket: Delta 2310

Launch pad: Space Launch Complex 2W

Location: Vandenberg SFB, CA, USA

...

Latest news about this satellite

There are no fresh news available about this satellite. Check back as we update our databases every day.


Newsletter sign-up

Weekly statistics, charts and insights to help you stay on top of the space industry.